QPF
0.00 0.00 0.00 0.00 0.00 0.00 0.00 0.00 0.00 0.00 0.00 0.00 0.00 0.00 0.00 0.00 0.00 0.00 0.00 0.00 0.00 0.00 0.00 0.00 0.00 0.00 0.00 0.00 0.00 0.00 0.00 0.00 0.00 0.00 0.00 0.00 0.00 0.00 0.00 0.00 0.00 0.00 0.00
0.00 0.00 0.00 0.00 0.00 0.00 0.00 0.00 0.00 0.00 0.00 0.00 0.00 0.00 0.00 0.00 0.00 0.00 0.00 0.00 0.00 0.00 0.00 0.00 0.00 0.00 0.00 0.00 0.00 0.00 0.00 0.00 0.00 0.00 0.00 0.00 0.00 0.00 0.00 0.00 0.00 0.00 0.00
0.00 0.00 0.00 0.00 0.00 0.00 0.00 0.00 0.00 0.00 0.00 0.00 0.00 0.00 0.00 0.00 0.00 0.00 0.00 0.00 0.00 0.00 0.00 0.00 0.00 0.00 0.00 0.00 0.00 0.00 0.00 0.00 0.00 0.00 0.00 0.00 0.00 0.00 0.00 0.00 0.00 0.00 0.00
0.00 0.00 0.00 0.00 0.00 0.00 0.00 0.00 0.00 0.00 0.00 0.00 0.00 0.00 0.00 0.00 0.00 0.00 0.00 0.00 0.00 0.00 0.00 0.00 0.00 0.00 0.00 0.00 0.00 0.00 0.00 0.00 0.00 0.00 0.00 0.00 0.00 0.00 0.00 0.00 0.00 0.00 0.00
0.00 0.00 0.00 0.00 0.00 0.00 0.00 0.00 0.00 0.00 0.00 0.00 0.00 0.00 0.00 0.00 0.00 0.00 0.00 0.00 0.00 0.00 0.00 0.00 0.00 0.00 0.00 0.00 0.00 0.00 0.00 0.00 0.00 0.00 0.00 0.00 0.00 0.00 0.00 0.00 0.00 0.00 0.00
0.00 0.00 0.00 0.00 0.00 0.00 0.00 0.00 0.00 0.00 0.00 0.00 0.00 0.00 0.00 0.00 0.00 0.00 0.00 0.00 0.00 0.00 0.00 0.00 0.00 0.00 0.00 0.00 0.00 0.00 0.00 0.00 0.00 0.00 0.00 0.00 0.00 0.00 0.00 0.00 0.00 0.00 0.00
0.00 0.00 0.00 0.00 0.00 0.00 0.00 0.00 0.00 0.00 0.00 0.00 0.00 0.00 0.00 0.00 0.00 0.00 0.00 0.00 0.00 0.00 0.00 0.00 0.00 0.00 0.00 0.00 0.00 0.00 0.00 0.00 0.00 0.00 0.00 0.00 0.00 0.00 0.00 0.00 0.00 0.00 0.00
0.00 0.00 0.00 0.00 0.00 0.00 0.00 0.00 0.00 0.00 0.00 0.00 0.00 0.00 0.00 0.00 0.00 0.00 0.00 0.00 0.00 0.00 0.00 0.00 0.00 0.00 0.00 0.00 0.00 0.00 0.00 0.00 0.00 0.00 0.00 0.00 0.00 0.00 0.00 0.00 0.00 0.00 0.00
0.00 0.00 0.00 0.00 0.00 0.00 0.00 0.00 0.00 0.00 0.00 0.00 0.00 0.00 0.00 0.00 0.00 0.00 0.00 0.00 0.00 0.00 0.00 0.00 0.00 0.00 0.00 0.00 0.00 0.00 0.00 0.00 0.00 0.00 0.00 0.00 0.00 0.00 0.00 0.00 0.00 0.00 0.00
0.00 0.00 0.00 0.00 0.00 0.00 0.00 0.00 0.00 0.00 0.00 0.00 0.00 0.00 0.00 0.00 0.00 0.00 0.00 0.00 0.00 0.00 0.00 0.00 0.00 0.00 0.00 0.00 0.00 0.00 0.00 0.00 0.00 0.00 0.00 0.00 0.00 0.00 0.00 0.00 0.00 0.00 0.00
0.00 0.00 0.00 0.00 0.00 0.00 0.00 0.00 0.00 0.00 0.00 0.00 0.00 0.00 0.00 0.00 0.00 0.00 0.00 0.00 0.00 0.00 0.00 0.00 0.00 0.00 0.00 0.00 0.00 0.00 0.00 0.00 0.00 0.00 0.00 0.00 0.00 0.00 0.00 0.00 0.00 0.00 0.00
0.00 0.00 0.00 0.00 0.00 0.00 0.00 0.00 0.00 0.00 0.00 0.00 0.00 0.00 0.00 0.00 0.00 0.00 0.00 0.00 0.00 0.00 0.00 0.00 0.00 0.00 0.00 0.00 0.00 0.00 0.00 0.00 0.00 0.00 0.00 0.00 0.00 0.00 0.00 0.00 0.00 0.00 0.00
0.00 0.00 0.00 0.00 0.00 0.00 0.00 0.00 0.00 0.00 0.00 0.00 0.00 0.00 0.00 0.00 0.00 0.00 0.00 0.00 0.00 0.00 0.00 0.00 0.00 0.00 0.00 0.00 0.00 0.00 0.00 0.00 0.00 0.00 0.00 0.00 0.00 0.00 0.00 0.00 0.00 0.00 0.00
0.00 0.00 0.00 0.00 0.00 0.00 0.00 0.00 0.00 0.00 0.00 0.00 0.00 0.00 0.00 0.00 0.00 0.00 0.00 0.00 0.00 0.00 0.00 0.00 0.00 0.00 0.00 0.00 0.00 0.00 0.00 0.00 0.00 0.00 0.00 0.00 0.00 0.00 0.00 0.00 0.00 0.00 0.00
0.00 0.00 0.00 0.00 0.00 0.00 0.00 0.00 0.00 0.00 0.00 0.00 0.00 0.00 0.00 0.00 0.00 0.00 0.00 0.00 0.00 0.00 0.00 0.00 0.00 0.00 0.00 0.00 0.00 0.00 0.00 0.00 0.00 0.00 0.00 0.00 0.00 0.00 0.00 0.00 0.00 0.00 0.00
0.00 0.00 0.00 0.00 0.00 0.00 0.00 0.00 0.00 0.00 0.00 0.00 0.00 0.00 0.00 0.00 0.00 0.00 0.00 0.00 0.00 0.00 0.00 0.00 0.00 0.00 0.00 0.00 0.00 0.00 0.00 0.00 0.00 0.00 0.00 0.00 0.00 0.00 0.00 0.00 0.00 0.00 0.00
0.00 0.00 0.00 0.00 0.00 0.00 0.00 0.00 0.00 0.00 0.00 0.00 0.00 0.00 0.00 0.00 0.00 0.00 0.00 0.00 0.00 0.00 0.00 0.00 0.00 0.00 0.00 0.00 0.00 0.00 0.00 0.00 0.00 0.00 0.00 0.00 0.00 0.00 0.00 0.00 0.00 0.00 0.00
0.00 0.00 0.00 0.00 0.00 0.00 0.00 0.00 0.00 0.00 0.00 0.00 0.00 0.00 0.00 0.00 0.00 0.00 0.00 0.00 0.00 0.00 0.00 0.00 0.00 0.00 0.00 0.00 0.00 0.00 0.00 0.00 0.00 0.00 0.00 0.00 0.00 0.00 0.00 0.00 0.00 0.00 0.00
0.00 0.00 0.00 0.00 0.00 0.00 0.00 0.00 0.00 0.00 0.00 0.00 0.00 0.00 0.00 0.00 0.00 0.00 0.00 0.00 0.00 0.00 0.00 0.00 0.00 0.00 0.00 0.00 0.00 0.00 0.00 0.00 0.00 0.00 0.00 0.00 0.00 0.00 0.00 0.00 0.00 0.00 0.00
0.00 0.00 0.00 0.00 0.00 0.00 0.00 0.00 0.00 0.00 0.00 0.00 0.00 0.00 0.00 0.00 0.00 0.00 0.00 0.00 0.00 0.00 0.00 0.00 0.00 0.00 0.00 0.00 0.00 0.00 0.00 0.00 0.00 0.00 0.00 0.00 0.00 0.00 0.00 0.00 0.00 0.00 0.00
0.00 0.00 0.00 0.00 0.00 0.00 0.00 0.00 0.00 0.00 0.00 0.00 0.00 0.00 0.00 0.00 0.00 0.00 0.00 0.00 0.00 0.00 0.00 0.00 0.00 0.00 0.00 0.00 0.00 0.00 0.00 0.00 0.00 0.00 0.00 0.00 0.00 0.00 0.01 0.01 0.01 0.01 0.00
0.00 0.00 0.00 0.00 0.00 0.00 0.00 0.00 0.00 0.00 0.00 0.00 0.00 0.00 0.00 0.00 0.00 0.00 0.00 0.00 0.00 0.00 0.00 0.00 0.00 0.00 0.00 0.00 0.00 0.00 0.00 0.01 0.01 0.00 0.00 0.00 0.00 0.01 0.01 0.01 0.01 0.01 0.01
0.00 0.00 0.00 0.00 0.00 0.00 0.00 0.00 0.00 0.00 0.00 0.00 0.00 0.00 0.00 0.00 0.00 0.00 0.00 0.00 0.00 0.00 0.00 0.00 0.00 0.00 0.00 0.00 0.00 0.00 0.00 0.01 0.01 0.01 0.01 0.01 0.01 0.01 0.00 0.00 0.01 0.01 0.00
0.00 0.00 0.00 0.00 0.00 0.00 0.00 0.00 0.00 0.00 0.00 0.00 0.00 0.00 0.00 0.00 0.00 0.00 0.00 0.00 0.00 0.00 0.00 0.00 0.00 0.00 0.00 0.00 0.00 0.00 0.00 0.01 0.01 0.01 0.01 0.01 0.01 0.01 0.00 0.00 0.00 0.00 0.00
0.00 0.00 0.00 0.00 0.00 0.00 0.00 0.00 0.00 0.00 0.00 0.00 0.00 0.00 0.00 0.00 0.00 0.00 0.00 0.00 0.00 0.00 0.00 0.00 0.00 0.00 0.00 0.00 0.01 0.01 0.01 0.01 0.01 0.02 0.01 0.01 0.00 0.00 0.00 0.00 0.00 0.00 0.00
0.00 0.00 0.00 0.00 0.00 0.00 0.00 0.00 0.00 0.00 0.00 0.00 0.00 0.00 0.00 0.00 0.00 0.00 0.00 0.00 0.00 0.00 0.00 0.00 0.00 0.00 0.00 0.00 0.01 0.01 0.01 0.02 0.02 0.01 0.01 0.00 0.00 0.00 0.00 0.00 0.00 0.00 0.00
MSLP
1017.42 1018.23 1018.56 1018.82 1019.21 1019.58 1019.90 1020.12 1020.39 1020.57 1020.81 1020.78 1020.70 1020.68 1020.55 1020.73 1020.81 1020.84 1021.02 1021.02 1020.97 1020.92 1020.88 1020.70 1020.73 1020.64 1020.41 1020.29 1020.10 1019.85 1019.56 1018.99 1018.89 1018.15 1017.44 1017.36 1017.44 1017.40 1017.39 1017.40 1017.41 1017.54 1017.60
1017.27 1018.06 1018.50 1018.91 1019.23 1019.48 1019.81 1020.13 1020.28 1020.52 1020.70 1020.79 1020.78 1020.86 1020.77 1020.67 1020.70 1020.70 1020.73 1020.78 1020.82 1020.89 1020.69 1020.60 1020.55 1020.59 1020.43 1020.17 1020.09 1020.02 1019.61 1019.36 1019.30 1018.75 1018.07 1017.02 1016.90 1017.00 1017.02 1017.22 1017.31 1017.46 1017.49
1017.07 1017.80 1018.44 1018.81 1019.24 1019.51 1019.84 1020.09 1020.27 1020.48 1020.59 1020.75 1020.82 1020.91 1020.84 1020.73 1020.51 1020.33 1020.30 1020.39 1020.60 1020.67 1020.73 1020.44 1020.41 1020.40 1020.45 1020.12 1020.09 1020.07 1019.92 1019.55 1019.39 1019.44 1019.00 1017.79 1017.06 1017.07 1016.85 1016.99 1017.08 1017.22 1017.21
1017.53 1017.99 1018.49 1018.93 1019.26 1019.60 1020.02 1020.22 1020.32 1020.38 1020.46 1020.58 1020.65 1020.48 1020.27 1020.06 1019.87 1020.04 1020.08 1020.15 1020.32 1020.34 1020.49 1020.43 1020.29 1020.24 1020.16 1020.05 1019.95 1019.95 1020.02 1019.97 1019.43 1019.40 1019.30 1019.10 1018.71 1017.90 1016.90 1016.76 1016.85 1016.98 1016.97
1017.75 1018.13 1018.54 1019.02 1019.48 1019.86 1020.07 1020.23 1020.30 1020.30 1020.31 1020.38 1020.40 1020.26 1020.06 1019.91 1019.96 1020.02 1019.98 1019.89 1019.87 1020.03 1020.09 1020.12 1020.02 1019.94 1019.89 1019.78 1019.84 1019.81 1019.87 1019.85 1019.74 1019.38 1019.13 1018.95 1018.71 1018.59 1018.13 1016.78 1016.34 1016.51 1016.55
1018.13 1018.54 1018.99 1019.38 1019.76 1020.17 1020.32 1020.34 1020.31 1020.33 1020.33 1020.28 1020.22 1020.19 1020.06 1019.87 1019.76 1019.67 1019.64 1019.50 1019.54 1019.56 1019.67 1019.80 1019.75 1019.61 1019.55 1019.46 1019.48 1019.54 1019.57 1019.50 1019.44 1019.30 1019.09 1018.86 1018.49 1018.04 1018.01 1017.33 1016.62 1016.18 1016.01
1018.23 1018.70 1019.11 1019.49 1019.87 1020.23 1020.42 1020.48 1020.46 1020.38 1020.33 1020.22 1020.18 1020.13 1020.11 1019.98 1019.79 1019.62 1019.48 1019.43 1019.25 1019.20 1019.28 1019.36 1019.21 1019.07 1019.05 1019.10 1019.19 1019.16 1019.05 1018.99 1018.98 1018.85 1018.60 1018.53 1018.39 1018.22 1017.94 1017.63 1016.98 1016.46 1015.99
1018.34 1018.85 1019.34 1019.73 1020.13 1020.43 1020.55 1020.55 1020.49 1020.36 1020.36 1020.26 1020.24 1020.21 1020.10 1019.95 1019.85 1019.73 1019.60 1019.43 1019.34 1019.27 1019.30 1019.18 1018.95 1018.81 1018.76 1018.76 1018.77 1018.72 1018.61 1018.51 1018.43 1018.35 1018.16 1017.98 1017.86 1017.89 1017.69 1017.38 1017.08 1016.34 1015.70
1018.36 1018.91 1019.53 1019.91 1020.21 1020.48 1020.67 1020.65 1020.52 1020.44 1020.44 1020.38 1020.24 1020.20 1020.12 1020.01 1019.87 1019.81 1019.66 1019.53 1019.48 1019.43 1019.30 1018.99 1018.72 1018.52 1018.43 1018.35 1018.26 1018.11 1017.95 1017.85 1017.72 1017.55 1017.50 1017.39 1017.25 1017.26 1017.17 1017.03 1016.88 1016.50 1015.50
1018.37 1019.00 1019.63 1020.09 1020.43 1020.64 1020.73 1020.74 1020.71 1020.64 1020.65 1020.50 1020.42 1020.36 1020.30 1020.22 1020.13 1019.98 1019.87 1019.74 1019.55 1019.45 1019.26 1018.86 1018.58 1018.38 1018.22 1018.06 1017.93 1017.68 1017.45 1017.27 1017.05 1016.92 1016.79 1016.59 1016.47 1016.39 1016.38 1016.39 1016.28 1015.93 1015.41
1018.23 1019.00 1019.66 1020.15 1020.44 1020.64 1020.77 1020.82 1020.82 1020.80 1020.76 1020.70 1020.59 1020.49 1020.49 1020.41 1020.25 1020.14 1020.05 1019.94 1019.73 1019.52 1019.20 1018.88 1018.63 1018.42 1018.18 1017.88 1017.60 1017.29 1016.98 1016.74 1016.48 1016.29 1016.07 1015.81 1015.77 1015.55 1015.43 1015.46 1015.34 1015.02 1014.65
1018.22 1018.91 1019.47 1019.89 1020.20 1020.40 1020.62 1020.73 1020.87 1020.83 1020.87 1020.83 1020.68 1020.66 1020.66 1020.54 1020.36 1020.26 1020.16 1019.96 1019.71 1019.41 1019.13 1018.85 1018.61 1018.31 1017.97 1017.66 1017.31 1016.92 1016.66 1016.31 1015.87 1015.54 1015.37 1015.09 1015.07 1014.83 1014.60 1014.40 1014.00 1013.78 1013.51
1018.06 1018.65 1019.24 1019.61 1019.95 1020.25 1020.55 1020.73 1020.92 1020.92 1020.96 1020.90 1020.77 1020.71 1020.63 1020.47 1020.33 1020.27 1020.16 1019.99 1019.72 1019.38 1019.02 1018.86 1018.59 1018.22 1017.85 1017.48 1017.07 1016.66 1016.28 1015.90 1015.53 1015.13 1014.74 1014.46 1014.26 1013.94 1013.68 1013.52 1013.18 1012.85 1012.56
1017.55 1018.21 1018.76 1019.24 1019.62 1019.93 1020.26 1020.54 1020.77 1020.88 1020.93 1020.92 1020.78 1020.65 1020.56 1020.50 1020.42 1020.35 1020.22 1019.99 1019.72 1019.39 1019.09 1018.83 1018.53 1018.19 1017.79 1017.39 1016.96 1016.55 1016.08 1015.55 1015.11 1014.78 1014.47 1014.17 1013.85 1013.40 1013.05 1012.77 1012.48 1012.21 1011.96
1017.04 1017.64 1018.18 1018.65 1019.22 1019.75 1020.26 1020.57 1020.78 1020.93 1021.03 1020.91 1020.79 1020.69 1020.65 1020.57 1020.46 1020.32 1020.16 1019.94 1019.70 1019.39 1019.09 1018.76 1018.38 1018.02 1017.65 1017.14 1016.77 1016.31 1015.66 1015.04 1014.50 1014.13 1013.73 1013.42 1013.15 1013.00 1012.78 1012.40 1011.78 1011.44 1011.05
1016.77 1017.57 1018.25 1018.76 1019.22 1019.60 1019.99 1020.42 1020.64 1020.83 1020.99 1020.80 1020.70 1020.72 1020.66 1020.60 1020.49 1020.31 1020.11 1019.86 1019.53 1019.17 1018.89 1018.54 1018.13 1017.69 1017.23 1016.75 1016.48 1016.08 1015.37 1014.68 1014.04 1013.42 1013.06 1012.74 1012.46 1012.09 1011.84 1011.60 1011.29 1011.12 1010.53
1016.18 1016.89 1017.46 1018.13 1018.70 1019.22 1019.79 1020.20 1020.53 1020.78 1020.77 1020.74 1020.70 1020.70 1020.68 1020.58 1020.42 1020.19 1019.87 1019.52 1019.19 1018.92 1018.57 1018.18 1017.75 1017.25 1016.74 1016.23 1015.84 1015.46 1015.00 1014.39 1013.71 1013.17 1012.82 1012.34 1011.98 1011.73 1011.10 1010.55 1010.13 1009.72 1009.47
1015.85 1016.50 1017.21 1018.00 1018.68 1019.31 1019.94 1020.40 1020.74 1020.75 1020.74 1020.70 1020.68 1020.65 1020.54 1020.26 1020.03 1019.83 1019.58 1019.27 1018.97 1018.61 1018.17 1017.72 1017.28 1016.76 1016.14 1015.61 1015.26 1014.99 1014.45 1013.74 1013.25 1012.91 1012.52 1011.97 1011.47 1011.17 1010.84 1010.18 1009.53 1008.91 1008.32
1015.77 1016.29 1016.92 1017.81 1018.72 1019.40 1019.95 1020.32 1020.53 1020.62 1020.59 1020.46 1020.39 1020.33 1020.26 1020.00 1019.75 1019.49 1019.19 1018.91 1018.59 1018.17 1017.67 1017.24 1016.68 1016.15 1015.47 1015.05 1014.70 1014.40 1013.78 1013.18 1012.53 1011.98 1011.52 1011.04 1010.49 1010.14 1009.92 1009.33 1008.52 1007.87 1007.25
1016.43 1016.93 1017.56 1018.28 1018.84 1019.47 1019.92 1020.17 1020.21 1020.30 1020.19 1020.09 1020.01 1019.96 1019.91 1019.76 1019.45 1019.17 1018.85 1018.56 1018.16 1017.64 1017.17 1016.60 1016.17 1015.58 1014.97 1014.51 1014.05 1013.74 1012.83 1012.09 1011.49 1010.95 1010.45 1010.09 1009.74 1009.20 1008.90 1008.46 1007.83 1006.85 1006.02
1016.83 1017.20 1017.74 1018.29 1018.94 1019.57 1019.96 1020.08 1020.11 1020.04 1019.94 1019.98 1019.84 1019.71 1019.61 1019.36 1019.03 1018.73 1018.32 1017.96 1017.51 1017.07 1016.49 1015.92 1015.40 1014.83 1014.29 1013.64 1013.26 1012.88 1012.19 1011.53 1010.90 1010.30 1009.57 1009.07 1008.72 1008.34 1007.91 1007.52 1006.92 1005.93 1005.19
1017.52 1017.79 1018.12 1018.58 1019.11 1019.58 1019.91 1019.87 1019.85 1019.77 1019.68 1019.70 1019.61 1019.43 1019.19 1018.90 1018.57 1018.14 1017.67 1017.32 1016.88 1016.41 1015.80 1015.13 1014.49 1014.08 1013.61 1013.11 1012.60 1012.21 1011.70 1011.13 1010.52 1009.65 1008.96 1008.36 1007.88 1007.37 1006.82 1006.18 1005.45 1004.88 1004.02
1017.63 1018.19 1018.61 1019.02 1019.32 1019.57 1019.72 1019.66 1019.56 1019.40 1019.45 1019.39 1019.19 1018.99 1018.73 1018.35 1017.94 1017.55 1017.13 1016.81 1016.35 1015.77 1015.12 1014.55 1013.85 1013.23 1012.85 1012.23 1011.87 1011.30 1010.85 1010.33 1009.73 1009.14 1008.23 1007.58 1006.86 1006.23 1005.53 1005.01 1004.62 1004.02 1003.46
1018.01 1018.47 1018.87 1019.24 1019.40 1019.50 1019.61 1019.53 1019.36 1019.39 1019.31 1019.06 1018.77 1018.38 1018.05 1017.60 1017.26 1017.00 1016.75 1016.29 1015.71 1015.09 1014.59 1013.98 1013.35 1012.58 1011.97 1011.57 1011.18 1010.55 1009.95 1009.41 1008.69 1008.13 1007.35 1006.63 1005.92 1005.35 1004.72 1004.21 1003.83 1003.39 1002.94
1018.42 1018.76 1018.97 1019.21 1019.35 1019.40 1019.12 1019.02 1019.09 1019.02 1018.77 1018.52 1018.13 1017.79 1017.53 1017.14 1016.74 1016.37 1015.99 1015.62 1015.07 1014.77 1014.23 1013.61 1013.21 1012.39 1011.36 1010.73 1010.47 1010.00 1009.26 1008.63 1008.01 1007.10 1006.37 1005.70 1005.15 1004.39 1003.98 1003.55 1003.19 1002.86 1002.49
1018.51 1018.76 1018.93 1019.14 1018.94 1019.05 1018.84 1018.63 1018.53 1018.44 1018.28 1017.93 1017.52 1017.20 1016.96 1016.55 1016.17 1015.76 1015.08 1014.65 1014.30 1013.84 1013.52 1013.11 1012.71 1011.81 1010.98 1010.08 1009.55 1009.01 1008.48 1007.84 1007.13 1006.28 1005.61 1005.01 1004.66 1004.07 1003.43 1002.81 1002.50 1002.26 1002.04
Thickness
5689 5683 5682 5681 5678 5675 5671 5668 5664 5661 5656 5654 5651 5647 5644 5639 5635 5632 5626 5623 5621 5620 5619 5618 5615 5614 5614 5612 5611 5611 5610 5612 5609 5614 5618 5615 5612 5611 5608 5606 5604 5602 5600
5685 5679 5677 5674 5672 5669 5665 5661 5658 5654 5650 5646 5642 5638 5636 5633 5629 5625 5621 5617 5615 5612 5612 5611 5609 5607 5606 5606 5604 5602 5603 5602 5600 5602 5605 5614 5612 5607 5605 5600 5597 5593 5591
5683 5677 5672 5670 5666 5662 5658 5654 5651 5647 5643 5638 5634 5630 5627 5624 5622 5620 5617 5612 5607 5605 5603 5604 5602 5600 5598 5599 5597 5595 5593 5594 5592 5588 5590 5601 5604 5598 5597 5593 5590 5586 5584
5672 5670 5666 5662 5659 5655 5650 5646 5643 5640 5637 5632 5628 5626 5624 5622 5619 5614 5610 5605 5601 5599 5597 5595 5594 5594 5592 5591 5590 5587 5584 5581 5584 5580 5577 5575 5576 5582 5589 5584 5580 5576 5574
5666 5663 5660 5655 5650 5645 5642 5639 5636 5633 5630 5625 5621 5619 5616 5614 5609 5605 5601 5599 5596 5594 5592 5589 5588 5587 5586 5585 5582 5579 5576 5573 5571 5571 5569 5567 5565 5562 5563 5574 5575 5570 5565
5655 5653 5649 5644 5640 5634 5631 5629 5626 5623 5620 5617 5614 5610 5607 5605 5602 5599 5595 5594 5591 5589 5586 5584 5582 5581 5580 5578 5575 5572 5568 5565 5562 5560 5558 5557 5558 5559 5554 5557 5560 5561 5557
5648 5644 5640 5636 5630 5626 5622 5619 5616 5614 5611 5609 5605 5601 5597 5595 5592 5590 5588 5586 5586 5584 5581 5578 5577 5576 5573 5570 5567 5564 5561 5558 5555 5552 5551 5548 5545 5542 5541 5540 5542 5544 5545
5640 5635 5630 5625 5620 5615 5612 5609 5607 5605 5601 5598 5594 5591 5588 5585 5582 5580 5579 5578 5576 5575 5572 5570 5569 5567 5564 5561 5558 5555 5553 5550 5547 5543 5541 5539 5535 5531 5528 5527 5526 5530 5534
5631 5626 5619 5615 5611 5606 5601 5598 5596 5593 5590 5587 5584 5581 5577 5575 5572 5570 5569 5568 5566 5563 5561 5561 5559 5558 5556 5553 5550 5548 5546 5543 5539 5536 5532 5529 5525 5520 5517 5515 5513 5513 5519
5622 5616 5610 5604 5599 5594 5590 5587 5584 5581 5577 5575 5572 5569 5565 5562 5559 5558 5557 5555 5554 5552 5551 5550 5550 5548 5545 5543 5540 5539 5536 5534 5531 5527 5523 5520 5516 5513 5510 5506 5504 5503 5504
5615 5607 5600 5593 5588 5584 5580 5576 5573 5568 5565 5562 5559 5556 5552 5549 5547 5546 5544 5542 5541 5540 5540 5539 5537 5535 5532 5531 5529 5527 5526 5523 5520 5517 5515 5513 5508 5507 5504 5499 5496 5494 5492
5606 5599 5593 5586 5581 5577 5571 5567 5561 5558 5553 5549 5547 5543 5540 5538 5537 5535 5532 5531 5530 5529 5528 5526 5524 5522 5520 5518 5516 5515 5512 5511 5510 5508 5506 5504 5499 5497 5494 5491 5489 5486 5484
5598 5591 5584 5579 5573 5566 5560 5554 5549 5545 5540 5537 5534 5532 5529 5527 5525 5522 5520 5519 5517 5516 5515 5512 5510 5508 5506 5504 5503 5502 5500 5499 5498 5496 5495 5492 5489 5487 5483 5479 5478 5476 5474
5592 5586 5578 5571 5564 5557 5551 5544 5538 5533 5529 5525 5523 5520 5517 5514 5512 5509 5507 5505 5503 5502 5499 5497 5495 5493 5491 5489 5488 5487 5486 5487 5486 5483 5480 5477 5474 5472 5469 5467 5464 5462 5459
5586 5578 5570 5563 5554 5545 5537 5531 5526 5521 5516 5513 5510 5507 5504 5501 5498 5496 5493 5490 5488 5485 5483 5481 5480 5477 5475 5474 5473 5472 5474 5475 5474 5470 5468 5464 5460 5454 5449 5448 5449 5445 5444
5576 5566 5557 5549 5541 5535 5528 5521 5515 5510 5504 5502 5499 5494 5491 5487 5484 5481 5477 5475 5473 5471 5468 5465 5464 5463 5461 5459 5457 5455 5458 5459 5459 5458 5455 5451 5446 5442 5438 5433 5430 5425 5422
5570 5560 5551 5541 5533 5525 5517 5510 5503 5496 5492 5488 5484 5480 5475 5471 5468 5465 5463 5462 5460 5457 5454 5452 5450 5449 5448 5446 5444 5442 5442 5442 5442 5440 5436 5433 5428 5421 5420 5419 5416 5412 5404
5561 5551 5541 5530 5520 5511 5501 5493 5486 5481 5477 5473 5469 5464 5461 5458 5455 5452 5449 5447 5445 5442 5440 5438 5436 5436 5435 5432 5429 5427 5427 5429 5425 5420 5415 5412 5410 5401 5393 5393 5393 5391 5386
5549 5541 5531 5518 5506 5496 5486 5479 5473 5467 5463 5460 5455 5450 5446 5444 5441 5438 5435 5432 5430 5429 5427 5425 5424 5422 5422 5418 5414 5411 5412 5411 5409 5405 5400 5395 5392 5384 5373 5365 5363 5365 5361
5528 5519 5509 5499 5491 5481 5472 5466 5462 5456 5452 5448 5442 5437 5434 5430 5427 5424 5421 5420 5418 5417 5415 5414 5410 5408 5407 5402 5397 5393 5395 5397 5395 5390 5383 5374 5365 5360 5351 5338 5331 5335 5337
5512 5505 5495 5486 5476 5466 5457 5452 5447 5444 5439 5433 5428 5424 5420 5417 5414 5413 5410 5407 5405 5403 5401 5401 5398 5394 5391 5389 5383 5378 5375 5372 5371 5366 5361 5354 5343 5334 5327 5317 5310 5311 5314
5490 5484 5477 5468 5459 5450 5442 5438 5433 5430 5424 5420 5415 5410 5407 5405 5401 5399 5397 5394 5391 5389 5389 5388 5387 5381 5376 5370 5365 5358 5352 5346 5341 5341 5333 5327 5320 5314 5311 5307 5304 5301 5302
5476 5465 5457 5449 5443 5435 5428 5424 5421 5418 5413 5408 5403 5398 5395 5391 5389 5387 5384 5381 5377 5376 5375 5372 5372 5369 5360 5355 5346 5340 5332 5323 5316 5311 5309 5306 5304 5302 5302 5300 5294 5293 5291
5456 5446 5438 5431 5425 5420 5414 5410 5407 5404 5399 5394 5390 5387 5385 5382 5379 5376 5371 5368 5364 5362 5359 5355 5351 5350 5345 5332 5325 5319 5312 5304 5299 5295 5294 5295 5296 5296 5296 5294 5288 5285 5285
5435 5427 5422 5415 5411 5406 5404 5400 5395 5391 5387 5384 5381 5378 5374 5371 5368 5364 5359 5354 5350 5341 5337 5334 5325 5321 5324 5317 5303 5295 5291 5287 5284 5286 5289 5291 5291 5294 5291 5288 5285 5282 5283
5420 5414 5408 5402 5400 5396 5392 5388 5385 5381 5377 5375 5372 5369 5363 5360 5355 5351 5352 5345 5336 5331 5321 5312 5302 5301 5294 5294 5288 5282 5276 5275 5276 5281 5283 5286 5284 5284 5285 5286 5285 5284 5284